Findlay, OH

2:54 PM EDT on June 22, 2017 (GMT -0400)
Findlay

Weather History for KFDY - December, 2013

Change the Weather History Date:

Saturday, December 7, 2013

  Actual Average Record
Temperature  
Mean Temperature 22 °F -  
Max Temperature 26 °F 38 °F 62 °F (1951)
Min Temperature 19 °F 27 °F 0 °F (2005)
Degree Days  
Heating Degree Days 42    
Moisture  
Dew Point 14 °F    
Average Humidity 67    
Maximum Humidity 75    
Minimum Humidity 59    
Precipitation  
Precipitation 0.00 in - - ()
Sea Level Pressure  
Sea Level Pressure 30.54 in    
Wind  
Wind Speed 7 mph (NNW)    
Max Wind Speed 12 mph    
Max Gust Speed -    
Visibility 10 miles    
Events Snow    
Averages and records for this station are not official NWS values.
T = Trace of Precipitation, MM = Missing Value Source: NWS Daily Summary

Daily Weather History Graph

Daily Weather History Graph

Search for Another Location

Airport or City:

Trip Planner

Search our weather history database for the weather conditions in past years. The results will help you decide how hot, cold, wet, or windy it might be!

Date:

Astronomy

Dec. 07, 2013 Rise Set
Actual Time 7:46 AM EST 5:06 PM EST
Civil Twilight 7:15 AM EST 5:37 PM EST
Nautical Twilight 6:40 AM EST 6:11 PM EST
Astronomical Twilight 6:07 AM EST 6:44 PM EST
Moon 11:29 AM EST (12/7) 10:48 PM EST (12/7)
Length of Visible Light 10h 21m
Length of Day
9h 19m
Waxing Crescent, 29% of the Moon is Illuminated
Dec 7
Waxing Crescent
Dec 9
First Quarter
Dec 17
Full
Dec 25
Last Quarter
Jan 1
New

Hourly Weather History & Observations

Time (EST) Temp. Windchill Dew Point Humidity Pressure Visibility Wind Dir Wind Speed Gust Speed Precip Events Conditions
12:20 AM 26.6 °F 20.0 °F 17.6 °F 69% 30.37 in 10.0 mi NW 5.8 mph - N/A   Mostly Cloudy
12:53 AM 25.0 °F 14.2 °F 18.0 °F 75% 30.39 in 10.0 mi NW 11.5 mph - N/A   Overcast
1:53 AM 25.0 °F 14.8 °F 17.1 °F 72% 30.40 in 10.0 mi NNW 10.4 mph - N/A   Overcast
2:53 AM 24.1 °F 13.1 °F 15.1 °F 69% 30.43 in 10.0 mi NNW 11.5 mph - N/A   Overcast
3:53 AM 23.0 °F 13.1 °F 15.1 °F 72% 30.46 in 10.0 mi NNW 9.2 mph - N/A   Overcast
4:53 AM 21.9 °F 11.7 °F 10.9 °F 63% 30.48 in 10.0 mi NW 9.2 mph - N/A   Mostly Cloudy
5:02 AM 21.2 °F 12.6 °F 10.4 °F 63% 30.45 in 10.0 mi NNW 6.9 mph - N/A   Scattered Clouds
5:53 AM 19.9 °F 12.1 °F 12.0 °F 71% 30.51 in 10.0 mi NNW 5.8 mph - N/A   Scattered Clouds
6:53 AM 21.0 °F - 14.0 °F 74% 30.53 in 10.0 mi Calm Calm - N/A   Overcast
7:53 AM 21.9 °F 15.7 °F 14.0 °F 72% 30.53 in 10.0 mi NNW 4.6 mph - N/A   Overcast
8:53 AM 23.0 °F 14.7 °F 14.0 °F 68% 30.56 in 10.0 mi North 6.9 mph - N/A   Overcast
9:53 AM 23.0 °F 15.8 °F 16.0 °F 74% 30.58 in 10.0 mi North 5.8 mph - N/A   Overcast
10:29 AM 24.8 °F 16.9 °F 14.0 °F 64% 30.56 in 10.0 mi North 6.9 mph - N/A   Overcast
10:38 AM 24.8 °F 16.9 °F 14.0 °F 64% 30.56 in 10.0 mi NNW 6.9 mph - N/A   Overcast
10:46 AM 24.8 °F 16.9 °F 14.0 °F 64% 30.56 in 10.0 mi NW 6.9 mph - N/A   Overcast
10:53 AM 24.1 °F 13.7 °F 14.0 °F 65% 30.59 in 10.0 mi NW 10.4 mph - N/A   Overcast
11:53 AM 24.1 °F 15.2 °F 15.1 °F 69% 30.59 in 8.0 mi NNW 8.1 mph - 0.00 in Snow Light Snow
12:53 PM 25.0 °F 16.3 °F 14.0 °F 63% 30.58 in 10.0 mi NW 8.1 mph - 0.00 in   Overcast
1:26 PM 24.8 °F 16.1 °F 12.2 °F 59% 30.55 in 10.0 mi NW 8.1 mph - N/A   Partly Cloudy
1:53 PM 25.0 °F 17.1 °F 12.9 °F 60% 30.57 in 10.0 mi NW 6.9 mph - N/A   Scattered Clouds
2:53 PM 25.0 °F 17.1 °F 12.9 °F 60% 30.56 in 10.0 mi NW 6.9 mph - N/A   Partly Cloudy
3:53 PM 25.0 °F 18.1 °F 12.9 °F 60% 30.56 in 10.0 mi NW 5.8 mph - N/A   Mostly Cloudy
4:53 PM 24.1 °F 18.2 °F 12.0 °F 60% 30.58 in 10.0 mi NW 4.6 mph - N/A   Clear
5:53 PM 23.0 °F - 12.0 °F 63% 30.59 in 10.0 mi Calm Calm - N/A   Clear
6:53 PM 23.0 °F - 12.0 °F 63% 30.59 in 10.0 mi Calm Calm - N/A   Clear
7:53 PM 21.9 °F 17.2 °F 12.9 °F 68% 30.61 in 10.0 mi NNW 3.5 mph - N/A   Clear
8:53 PM 21.0 °F - 12.9 °F 71% 30.61 in 10.0 mi Calm Calm - N/A   Clear
9:53 PM 19.9 °F - 12.0 °F 71% 30.61 in 10.0 mi Calm Calm - N/A   Clear
10:53 PM 19.9 °F - 12.0 °F 71% 30.60 in 10.0 mi Calm Calm - N/A   Clear
11:53 PM 19.0 °F 11.1 °F 10.9 °F 71% 30.59 in 10.0 mi NNE 5.8 mph - N/A   Clear